Location: Biharia
(46.4333°N, 22.8000°E)
Time: 23:00:24
(UTC+00:00)

Cosmos 839 Rocket - Pass Details

Date: 16 October 2021
Orbit: 964 x 2089 km, 65.9° (Epoch: 26 November)

Event Time Altitude Azimuth Distance (km) Brightness Sun altitude
Rises 18:32:39 0° 324° (NW) 4,473 8.2 -30.1°
Reaches altitude 10° 18:35:47 10° 323° (NW) 3,336 7.4 -30.6°
Maximum altitude 18:43:32 77° 239° (WSW) 1,142 4.2 -31.9°
Enters shadow 18:43:48 75° 215° (SW) 1,142 4.2 -31.9°
